SCP
1 2 2 2 2 1 1 1 1 1 1 1 1 1 1 1 1 1 1 1 1 1 1 1 1 1 1 1 1 1 1 1 1 1 1 1 1 1 1 1 1 1 1
1 1 1 1 1 1 1 1 1 1 1 1 1 1 1 1 1 1 1 1 1 1 1 1 1 1 1 1 1 1 1 1 1 1 1 1 1 1 1 1 1 1 1
1 1 1 1 1 1 1 1 1 1 1 1 1 1 1 1 1 1 1 1 1 1 1 1 1 1 1 1 1 1 1 1 1 1 1 0 0 1 1 1 1 1 1
1 1 1 1 1 1 1 1 1 1 1 1 1 1 1 1 1 1 1 1 1 1 1 1 1 1 1 1 1 1 1 1 1 1 1 0 0 1 1 1 1 1 1
1 1 1 1 1 1 1 1 1 1 1 1 1 1 1 1 1 1 1 1 1 1 1 1 1 1 1 1 1 1 1 1 1 0 0 0 0 0 1 1 1 1 1
1 1 1 1 1 1 1 1 1 1 1 1 1 1 1 1 1 1 1 1 1 1 1 1 1 1 1 1 1 1 1 1 0 0 0 0 0 0 1 1 1 1 1
1 1 1 1 1 1 1 1 1 1 1 1 1 1 1 1 1 1 1 1 1 1 1 1 1 1 1 1 1 1 1 1 0 0 0 0 0 1 1 1 1 1 1
0 1 1 1 1 1 2 1 1 1 1 1 1 1 1 1 1 1 1 1 1 1 1 1 1 1 1 1 1 1 1 0 0 0 0 0 1 1 1 1 1 1 1
0 0 0 1 1 1 1 1 1 1 1 1 1 1 1 1 1 1 1 1 1 1 1 1 1 1 1 1 1 1 1 0 0 0 0 0 1 1 1 1 1 1 1
0 0 0 0 0 1 1 1 1 1 1 1 1 1 1 1 1 1 1 1 1 1 1 1 1 1 1 1 0 1 1 1 0 0 0 0 1 1 1 1 1 1 1
0 0 0 0 0 0 1 1 1 1 1 1 1 1 1 1 1 1 1 1 1 1 1 1 1 1 1 0 0 1 1 1 0 0 0 0 1 1 1 1 1 1 1
0 0 0 0 0 0 0 0 1 1 1 1 1 1 0 0 0 1 1 1 1 1 1 1 1 1 0 0 1 1 1 1 0 0 0 0 1 1 1 1 1 1 1
0 0 0 0 0 0 0 0 1 1 0 0 0 0 0 0 0 1 1 1 1 1 1 1 1 1 0 1 1 1 1 0 0 0 0 0 0 1 1 1 1 1 1
0 0 0 0 0 0 0 0 0 0 0 0 0 0 0 0 0 1 0 0 0 1 1 1 1 1 1 1 1 1 1 0 0 0 0 0 0 1 1 1 1 1 1
0 0 0 0 0 0 0 0 0 0 0 0 1 0 0 0 0 0 0 0 0 0 0 1 1 1 1 1 1 1 1 0 0 0 0 0 1 1 1 1 1 1 1
0 0 0 0 0 0 0 0 0 0 0 0 0 0 0 0 0 0 0 0 0 0 0 1 1 1 0 0 0 0 0 0 0 0 0 0 1 1 1 1 1 1 1
1 0 0 0 0 0 0 0 0 0 0 0 0 0 0 0 0 0 0 0 0 0 0 0 0 0 0 0 0 0 0 0 0 0 0 0 1 1 1 1 1 1 1
1 1 0 0 0 0 0 0 0 0 0 0 0 0 0 0 0 0 0 0 0 0 0 0 0 0 0 0 0 0 0 0 0 0 0 0 1 1 1 1 1 1 1
1 1 0 0 0 0 0 0 0 0 0 0 0 0 0 0 0 0 0 0 0 0 0 0 0 0 0 0 0 0 0 0 0 0 0 1 1 1 1 1 1 1 1
1 1 0 0 0 0 0 0 0 0 0 0 0 0 0 0 0 0 0 1 1 0 0 0 0 0 0 0 0 0 0 0 0 0 0 0 0 0 1 1 1 1 1
1 1 0 0 0 0 0 0 0 0 0 0 0 0 0 0 0 0 0 1 1 1 0 0 0 0 0 0 0 0 1 1 0 0 0 0 0 0 0 0 1 1 1
0 1 1 1 0 0 0 0 0 0 0 0 0 0 0 0 0 0 0 1 1 1 1 1 1 1 1 1 1 1 1 1 0 0 0 0 0 0 0 1 1 1 1
1 1 1 1 1 1 1 0 0 0 0 0 0 0 0 0 0 1 1 1 1 1 1 1 1 1 1 1 1 1 1 1 0 0 0 0 0 1 1 1 1 1 1
1 1 1 1 1 1 1 1 1 1 1 1 1 0 0 1 1 1 1 1 1 2 1 1 1 1 1 1 0 0 0 0 0 0 0 0 0 1 1 1 1 1 1
1 1 2 2 2 1 1 1 1 1 1 1 1 1 1 1 1 1 1 2 2 2 2 1 1 1 1 1 0 0 0 0 0 0 0 0 0 0 0 0 0 0 0
1 1 2 2 2 2 2 1 1 1 1 1 1 1 1 1 1 1 1 2 2 2 2 2 1 1 1 1 0 0 0 0 0 0 0 0 0 0 0 0 0 0 0
Wind_Speed
1 0 2 4 5 6 7 8 9 9 10 11 12 13 14 14 15 15 15 15 15 15 15 15 15 14 15 15 15 15 14 14 13 14 14 13 13 13 12 13 12 9 12
1 1 3 4 5 6 7 8 9 9 10 11 11 12 13 14 15 15 15 15 15 15 15 15 14 15 15 14 14 14 13 13 13 13 13 12 12 12 12 12 11 8 12
2 1 2 4 6 7 8 8 9 9 10 10 11 12 13 13 14 14 14 14 14 14 14 14 14 14 14 14 13 13 12 12 12 11 10 6 8 11 11 12 12 12 11
2 2 3 5 7 7 8 9 9 9 10 10 11 12 13 13 13 13 14 14 14 14 14 14 14 13 13 13 12 12 12 11 11 10 5 5 5 10 11 11 11 11 11
2 2 2 6 7 7 9 9 9 10 10 10 11 12 12 12 12 12 13 13 13 13 13 13 13 13 12 12 11 11 11 10 10 7 4 4 4 8 10 10 10 10 10
2 2 2 6 7 8 10 9 9 9 10 10 11 11 12 12 11 11 11 12 12 12 13 13 13 12 11 11 10 10 9 10 8 5 4 4 4 8 9 9 10 10 9
2 2 2 6 7 8 9 9 9 9 9 9 10 11 11 10 10 10 10 11 11 11 12 12 12 11 10 9 9 9 9 8 5 4 4 3 4 7 8 9 9 9 9
3 2 2 5 6 7 8 8 8 9 9 9 10 10 10 9 9 9 9 10 10 11 11 11 10 10 9 8 8 8 8 7 5 4 3 3 5 6 6 7 7 8 9
3 3 3 3 4 5 6 7 8 8 8 9 9 9 9 8 8 8 8 8 9 10 10 10 10 9 8 7 7 7 7 6 4 3 4 2 4 5 6 6 6 6 7
3 3 3 3 3 3 3 5 7 8 8 8 8 8 8 7 7 6 5 7 8 8 9 8 8 8 7 7 6 6 6 5 3 3 2 3 5 6 6 6 6 6 6
3 2 2 2 2 3 3 4 5 6 6 6 6 7 6 4 3 3 5 7 7 7 7 7 7 7 6 5 6 6 5 2 3 2 2 4 5 6 6 6 6 6 6
2 1 1 2 1 2 2 3 3 3 3 4 3 4 3 3 2 3 5 6 6 6 5 5 5 5 4 2 3 4 2 2 2 2 2 4 5 5 6 6 6 6 6
2 2 1 1 1 2 2 2 2 2 2 2 3 3 2 2 2 2 2 2 3 3 3 3 3 2 2 1 1 2 2 2 1 1 2 4 4 5 5 6 6 7 7
3 2 1 2 2 2 2 2 1 1 1 1 1 1 1 1 1 1 1 1 2 1 2 2 2 2 2 2 2 2 2 1 1 1 1 4 4 5 5 6 6 7 7
3 2 2 2 2 2 2 1 1 1 1 1 1 1 1 1 1 1 1 1 1 1 2 2 2 2 2 2 1 2 1 1 1 1 1 3 4 4 5 6 6 7 7
4 3 2 2 2 2 2 1 1 1 1 1 0 0 1 1 1 1 1 1 1 1 1 2 2 2 1 1 1 1 1 1 1 1 1 2 3 4 5 5 5 6 6
5 4 3 3 3 2 2 2 1 1 1 1 0 0 1 1 2 1 1 1 1 1 2 2 2 2 1 1 1 1 1 1 1 0 1 1 1 2 3 3 3 4 5
4 4 4 4 3 3 2 1 1 1 1 1 0 0 0 1 2 2 1 1 1 2 2 2 2 1 1 1 1 0 0 0 1 1 0 0 0 1 1 2 2 3 4
5 5 4 3 3 3 3 2 1 1 1 0 0 0 0 1 2 2 1 1 2 2 1 2 2 2 1 1 1 0 0 0 0 0 0 0 0 1 1 2 2 3 3
5 5 4 4 3 3 2 2 1 1 1 0 0 0 0 1 2 2 2 2 2 2 1 1 2 2 1 1 1 1 1 0 0 0 0 0 0 1 1 1 1 2 3
4 4 4 4 3 3 2 2 2 1 0 0 0 0 1 1 2 2 2 2 2 2 2 2 2 2 1 1 1 1 2 1 1 0 0 0 1 1 1 1 1 1 1
6 5 5 4 4 4 3 2 2 2 1 1 0 0 0 1 2 2 3 2 2 2 2 2 2 2 1 1 2 1 1 2 1 1 0 0 1 1 1 1 1 1 1
7 7 6 5 4 4 3 2 2 2 2 1 1 0 0 1 1 2 3 3 2 2 2 2 3 3 2 1 1 2 2 2 1 1 1 0 1 1 1 1 1 1 1
8 7 6 5 5 4 4 4 4 3 2 2 1 1 0 1 1 2 2 3 3 2 2 2 2 2 3 1 1 1 1 2 1 1 1 1 1 1 1 1 1 1 1
7 6 6 5 5 5 5 5 4 3 2 1 1 1 0 0 0 1 2 2 2 2 2 2 2 2 2 2 2 2 1 1 1 2 1 1 1 1 1 1 1 1 1
6 6 6 6 6 5 6 5 5 5 4 3 2 2 1 0 0 0 1 2 2 2 2 2 2 3 2 3 2 2 2 2 2 2 2 1 1 2 1 1 1 2 2
Wind_Direction
348 42 109 97 97 101 101 103 106 107 109 111 114 119 121 122 123 124 124 125 126 127 126 125 125 124 126 125 123 122 122 122 126 129 130 129 128 129 128 125 124 124 126
113 89 114 102 103 105 107 106 107 108 111 113 116 119 121 122 123 124 125 126 127 128 127 127 125 124 124 123 123 123 123 125 128 130 129 129 131 132 131 131 132 131 132
86 76 108 107 108 108 109 110 108 108 110 112 118 120 121 122 123 124 126 126 127 127 128 128 126 126 125 125 126 125 124 124 124 123 121 119 129 136 136 136 136 136 138
93 64 94 105 106 109 112 111 107 106 107 109 115 119 121 121 121 124 127 128 128 129 130 128 127 126 127 126 126 124 122 121 121 119 112 121 133 140 141 141 142 142 143
72 52 89 99 100 105 112 111 107 107 107 109 114 120 122 122 122 125 127 131 131 132 133 130 128 126 127 127 126 124 123 121 119 110 105 109 122 141 141 144 147 146 145
65 50 84 92 96 103 108 106 105 105 108 112 117 120 122 123 125 126 126 130 133 132 132 132 130 129 129 130 128 126 125 120 113 108 110 121 134 146 146 148 150 151 150
74 50 68 92 95 102 104 102 102 106 110 114 118 121 124 127 128 127 129 131 134 134 132 132 132 131 129 132 131 129 127 129 119 120 123 127 141 146 151 152 153 157 156
85 55 56 92 99 98 103 105 103 106 112 113 115 117 122 127 129 129 131 134 138 139 137 135 134 134 132 133 132 130 131 136 129 130 128 137 151 154 155 152 157 160 162
74 56 37 48 76 92 99 103 105 104 106 109 111 116 120 124 126 129 133 136 137 140 139 139 138 139 135 132 131 135 142 139 129 134 144 143 148 155 157 157 157 163 169
74 58 43 41 51 55 68 99 104 106 106 108 110 110 109 112 115 122 129 138 140 138 139 141 143 140 137 136 135 136 140 137 130 140 145 163 165 162 162 162 161 163 169
92 61 55 53 57 62 64 88 93 99 96 97 97 95 87 71 71 87 111 129 136 137 139 143 145 142 137 132 130 127 122 116 133 140 153 174 177 179 179 178 178 174 173
137 107 74 73 74 77 82 68 56 63 62 64 67 71 70 67 60 67 84 114 123 128 133 131 131 133 117 107 117 117 105 119 132 153 174 187 192 193 191 190 188 185 182
156 138 111 110 96 94 82 78 64 64 63 63 70 75 80 71 61 53 57 79 86 93 87 93 86 86 97 103 106 113 118 122 136 167 189 200 210 211 208 205 200 198 195
149 160 145 130 115 106 101 90 88 84 75 69 67 92 100 92 74 64 66 63 66 79 85 77 82 87 99 109 125 128 133 136 143 160 202 209 219 223 223 219 214 210 203
159 173 168 149 145 134 120 126 113 106 101 100 95 108 127 124 115 96 81 78 78 85 92 88 89 97 99 95 115 135 147 142 151 168 239 231 233 238 239 229 221 217 216
170 174 160 154 156 141 139 145 142 139 139 118 97 135 146 145 145 133 116 102 106 111 116 112 110 108 107 103 108 126 146 152 171 189 247 261 253 251 247 234 229 222 215
173 166 162 162 144 143 151 166 155 150 134 128 129 97 162 163 160 152 137 132 138 126 115 106 97 99 119 115 99 115 125 162 169 213 250 273 279 260 250 230 227 220 217
167 164 171 168 152 159 163 161 139 136 134 139 131 36 255 156 156 147 144 150 129 115 118 124 119 110 102 102 77 32 74 190 194 184 191 252 304 290 275 256 243 238 234
175 169 162 155 156 166 158 138 120 113 112 111 110 140 216 134 144 144 153 147 125 117 127 156 123 132 134 130 130 52 3 278 243 192 160 232 258 271 295 298 282 274 255
177 169 160 158 159 147 128 106 91 82 55 42 84 186 163 137 136 138 136 118 116 117 111 116 121 110 123 131 102 56 37 9 62 92 219 276 276 259 264 294 296 292 283
171 172 170 166 166 150 141 144 143 174 206 279 255 215 167 145 136 130 128 123 127 132 143 143 129 112 99 116 95 35 14 23 47 288 255 296 312 307 316 289 281 276 285
181 183 181 181 175 173 172 160 155 153 162 188 298 24 137 148 144 142 140 142 140 132 130 139 133 131 132 127 128 110 3 345 3 12 339 230 283 326 321 307 313 302 296
189 191 191 189 184 180 166 125 100 78 56 46 11 344 323 140 137 138 149 150 152 157 167 169 161 159 165 159 128 143 155 231 310 348 344 335 327 324 308 317 330 313 302
197 189 188 186 185 178 161 154 157 163 181 209 204 197 56 107 145 152 152 157 162 164 170 184 168 165 154 175 182 172 170 164 159 326 339 359 355 307 295 292 302 311 301
191 184 186 184 187 179 169 170 166 177 195 189 149 128 121 40 135 155 157 164 167 172 176 172 160 157 161 173 177 164 146 128 146 164 271 321 343 302 279 266 270 277 276
184 180 181 183 192 186 178 178 179 185 183 172 174 172 186 209 305 179 159 164 174 175 177 179 171 165 171 170 169 162 159 164 181 175 202 247 282 298 299 274 266 260 256